Kaldármelar Airport

Jump to: basic info | weather | comments

Related pages: nearby airports | nearby navaids | notams | map

Basic information (top)

Codes: BIKA
Location: lon 64.778900, lat -22.256901, elev 160 ft / 49 m msl
Status: small_airport

Weather (top)

Current conditions for Reykjavik Airport 40nm (74km) SSE (rec'd 2014/10/31 18:00Z):

BIRK 311800Z 09019KT CAVOK 10/02 Q0982

Airport forecast for Reykjavik Airport 40nm (74km) SSE (rec'd 2014/10/31 15:00Z):

TAF BIRK 311351Z 3115/0115 09018KT 9999 SHRA SCT015 BKN030 OVC060 TX10/3115Z TN05/0103Z 
      BECMG 3118/3121 09010KT 
      BECMG 0101/0103 03007KT

Latest comments (top)

No comments yet for Kaldármelar Airport

More... (top)

See also NOTAMs and nearby airports and navaids, or visit the Kaldármelar Airport page at the main OurAirports website..